GOSAT 2

Satellite information

Favourite Embed

Satellite Type and Status

PAYLOADIN ORBIT

Key statistics

Satellite GOSAT 2 at a glance.

Uptime

2504

Days in orbit

Revolutions

≈ 14.8

Per day

Orbit

SSO

Sun Synchronous Orbit

Inclination

97.9

Latest

Satellite identification and parameters

Extended collection of information and parameters for GOSAT 2.

Object identification

Identified? True

Debris? False

Object name: GOSAT 2

International designator: 2018-084B

Object number (NORAD): 43672

Object ID (CCSDS): 43672

Country: JAPAN (JPN)

Current information (Y/N): Y

RCS size: LARGE

Orbital parameters

Period: 97.019 minutes

Inclination: 97.8611 deg

SMA: 6994.116 km

Apoapsis: 616.989 km

Periapsis: 614.972 km

RAAN: 357.5258 deg

Eccentricy: 0.00014415

Argument of periapsis: 91.683 deg

Mean anomaly: 268.4549 deg

Mean motion: 14.84238023 rev/day

Mean motion (dot): 0.0000466 rev/day2

B* drag term: 0.00056274959 1/REarth

Two-line elements (TLE)

Creation date: Sept. 4, 2025, 10:13 a.m.

Reference frame: TEME

Reference center: EARTH

Epoch: Sept. 4, 2025, 4:20 a.m. UTC

TLE line 0: 0 GOSAT 2

TLE line 1: 1 43672U 18084B 25247.18114494 .00004660 00000-0 56275-3 0 9999

TLE line 2: 2 43672 97.8611 357.5258 0001441 91.6830 268.4549 14.84238023371136

Live tracking on map

Real-time ground track for satellite GOSAT 2.

In-orbit conjunctions

There are no conjunctions computed for GOSAT 2, at the moment. Check back to stay up to date, as we update our databases every day.

Go to all conjunctions

Associated space launch

KhalifaSat is an Earth observation satellite for UAE. KhalifaSat will provide high-resolution imagery of Earth to be used for various purposes, including urban planning, change monitoring, area classification, monitoring environmental change and aiding relief efforts for natural disasters. GOSAT 2 (Greenhouse gases Observing SATellite 2) is a Japanese satellite dedicated to greenhouse gas measurement from space. It's a follow on to the GOSAT mission and includes such improvements as an ability to gather more precise data and monitor carbon monoxide concentrations.

GOSAT 2 was lifted into orbit during the mission ‘H-IIA 202 | KhalifaSat & GOSAT-2’, on board a H-IIA space rocket.

The launch took place on Oct. 29, 2018, 4:08 a.m. from Yoshinobu Launch Complex LP-1.

For more information about the launch, click the button.

Launch to space H-IIA 202 | KhalifaSat & GOSAT-2
H-IIA 202 | KhalifaSat & GOSAT-2

Agency: N/A

Status: Launch Successful

Launch date: Oct. 29, 2018, 4:08 a.m. UTC

Rocket: H-IIA

Launch pad: Yoshinobu Launch Complex LP-1

Location: Tanegashima Space Center, Japan

...

Latest news about this satellite

News about space launch
Japan Launches UAE's KhalifaSat and Climate-Monitoring Satellite Into Orbit


Newsletter sign-up

Weekly statistics, charts and insights to help you stay on top of the space industry.